User: anonymous   Login
Location: Владивосток
(43.1151°N, 131.8856°E)
Time: 09:16:29
(UTC+10:00)
Language:

NOAA 15 - Orbit

View from above orbital plane
View from above orbital plane
View from above satellite
View from above satellite

Ground track
Ground track

The orbit data is extracted from the following two-line orbital elements,

1 25338U 98030A   24109.54932237  .00000559  00000-0  24952-3 0  9996
2 25338  98.5745 137.9079 0011286 135.2204 224.9890 14.26538094348935
Epoch (UTC): 18 April 2024 13:11:01
Eccentricity: 0.0011286
inclination: 98.5745°
perigee height: 795 km
apogee height: 811 km
right ascension of ascending node: 137.9079°
argument of perigee: 135.2204°
revolutions per day: 14.26538094
mean anomaly at epoch: 224.9890°
orbit number at epoch: 34893

The dashed part of the orbit path shows where the satellite is in the earth's shadow,  

DLR